SCP
0 -0 -0 -0 -0 -0 -0 -0 -0 -0 -0 -0 -0 -0 -0 -0 0 0 0 0 0 0 0 0 0 0 0 0 0 0 0 0 0 0 0 0 0 0 0 0 0 0 0 0 0
0 0 0 -0 -0 -0 -0 -0 -0 -0 -0 -0 -0 -0 -0 0 0 0 0 0 0 0 0 0 0 0 0 0 0 0 0 0 0 0 0 0 0 0 0 0 0 0 0 0 0
0 0 0 0 0 -0 -0 -0 -0 -0 -0 -0 -0 -0 -0 0 0 0 0 0 0 0 0 0 0 0 0 0 0 0 0 0 0 0 0 0 0 0 0 0 0 0 0 0 0
0 0 0 0 0 0 -0 -0 -0 -0 -0 -0 -0 -0 -0 0 0 0 0 0 0 0 0 0 0 0 0 0 0 0 0 0 0 0 0 0 0 0 0 0 0 0 0 0 0
0 0 0 0 0 0 0 -0 -0 -0 -0 -0 0 0 0 0 0 0 0 0 0 0 0 0 0 0 0 0 0 0 0 0 0 0 0 0 0 0 0 0 0 0 0 0 0
0 0 0 0 0 0 0 0 -0 -0 0 0 0 0 0 0 0 0 0 0 0 0 0 0 0 0 0 0 0 0 0 0 0 0 0 0 0 0 0 0 0 0 0 0 0
0 0 0 0 0 0 0 0 0 0 0 0 0 0 0 0 0 0 0 0 0 0 0 0 0 0 0 0 0 0 0 0 0 0 0 0 0 0 0 0 0 0 0 0 0
0 0 0 0 0 0 0 0 0 0 0 0 0 0 0 0 0 0 0 0 0 0 0 0 0 0 0 0 0 0 0 0 0 0 0 0 0 0 0 0 0 0 0 0 0
0 0 0 0 0 0 0 0 0 0 0 0 0 0 0 0 0 0 0 0 0 0 0 0 0 0 0 0 0 0 0 0 0 0 0 0 0 0 0 0 0 0 0 0 0
0 0 0 0 0 0 0 0 0 0 0 0 0 0 0 0 0 0 0 0 0 0 0 0 0 0 0 0 0 0 0 0 0 0 0 0 0 0 0 0 0 0 0 0 0
0 0 0 0 0 0 0 0 0 0 0 0 0 0 0 0 0 0 0 0 0 0 0 0 0 0 0 0 0 0 0 0 0 0 0 0 0 0 0 0 0 0 0 0 0
0 0 0 0 0 0 0 0 0 0 0 0 0 0 0 0 0 0 0 0 0 0 0 0 0 0 0 0 0 0 0 0 0 0 0 0 0 0 0 0 0 0 0 0 0
0 0 0 0 0 0 0 0 0 0 0 0 0 0 0 0 0 0 0 0 0 0 0 0 0 0 0 0 0 0 0 0 0 0 0 0 0 0 0 0 0 0 0 0 0
0 0 0 0 0 0 0 0 0 0 0 0 0 0 0 0 0 0 0 0 0 0 0 0 0 0 0 0 0 0 0 0 0 0 0 0 0 0 0 0 0 0 0 0 0
0 0 0 0 0 0 0 0 0 0 0 0 0 0 0 0 0 0 0 0 0 0 0 0 0 0 0 0 0 0 0 0 0 0 0 0 0 0 0 0 0 0 0 0 0
0 0 0 0 0 0 0 0 0 0 0 0 0 0 0 0 0 0 0 0 0 0 0 0 0 0 0 0 0 0 0 0 0 0 0 0 0 0 0 0 0 0 0 0 0
0 0 0 0 0 0 0 0 0 0 0 0 0 0 0 0 0 0 0 0 0 0 0 0 0 0 0 0 0 0 0 0 0 0 0 0 0 0 0 0 0 0 0 0 0
0 0 0 0 0 0 0 0 0 0 0 0 0 0 0 0 0 0 0 0 0 0 0 0 0 0 0 0 0 0 0 0 0 0 0 0 0 0 0 0 0 0 0 0 0
0 0 0 0 0 0 0 0 0 0 0 0 0 0 0 0 0 0 0 0 0 0 0 0 0 0 0 0 0 0 0 0 0 0 0 0 0 0 0 0 0 0 0 0 0
0 0 0 0 0 0 0 0 0 0 0 0 0 0 0 0 0 0 0 0 0 0 0 0 0 0 0 0 0 0 0 0 0 0 0 0 0 0 0 0 0 0 0 0 0
0 0 0 0 0 0 0 0 0 0 0 0 0 0 0 0 0 0 0 0 0 0 0 0 0 0 0 0 0 0 0 0 0 0 0 0 0 0 0 0 0 0 0 0 0
0 0 0 0 0 0 0 0 0 0 0 0 0 0 0 0 0 0 0 0 0 0 0 0 0 0 0 0 0 0 0 0 0 0 0 0 0 0 0 0 0 0 0 0 0
0 0 0 0 0 0 0 0 0 0 0 0 0 0 0 0 0 0 0 0 0 0 0 0 0 0 0 0 0 0 0 0 0 0 0 0 0 0 0 0 0 0 0 0 0
0 0 0 0 0 0 0 0 0 0 0 0 0 0 0 0 0 0 0 0 0 0 0 0 0 0 0 0 0 0 0 0 0 0 0 0 0 0 0 0 0 0 0 0 0
0 0 0 0 0 0 0 0 0 0 0 0 0 0 0 0 0 0 0 0 0 0 0 0 0 0 0 0 0 0 0 0 0 0 0 0 0 0 0 0 0 0 0 0 0
0 0 0 0 0 0 0 0 0 0 0 0 0 0 0 0 0 0 0 0 0 0 0 0 0 0 0 0 0 0 0 0 0 0 0 0 0 0 0 0 0 0 0 0 0
0 0 0 0 0 0 0 0 0 0 0 0 0 0 0 0 0 0 0 0 0 0 0 0 0 0 0 0 0 0 0 0 0 0 0 0 0 0 0 0 0 0 0 0 0
Wind_Speed_500mb
15 17 18 17 16 16 16 16 17 17 18 18 14 12 7 4 17 12 11 17 20 21 17 9 7 10 10 9 8 5 8 2 4 7 10 19 13 13 23 17 18 39 31 40 46
12 17 18 19 17 16 15 15 16 16 16 17 14 11 5 1 7 23 18 18 19 21 16 7 8 6 7 7 8 8 6 4 0 1 5 17 8 17 15 23 19 52 30 40 36
10 14 18 18 18 17 17 16 15 16 16 15 10 8 5 4 5 16 18 16 18 20 15 12 5 9 10 11 13 5 6 2 7 5 13 13 14 17 15 6 36 39 50 49 42
16 14 16 17 18 18 17 17 17 17 16 13 9 6 3 3 1 12 14 16 17 21 16 14 5 6 8 6 9 6 6 3 4 10 8 11 17 8 30 19 25 31 40 47 49
16 14 16 18 18 19 19 18 16 16 14 9 8 5 1 2 6 10 12 13 15 16 19 8 17 7 9 4 6 6 7 9 13 6 3 10 22 5 26 33 36 42 43 47 52
19 16 13 15 18 19 20 20 20 17 13 8 6 3 1 2 5 10 11 12 15 18 21 20 13 14 13 6 6 4 7 9 7 17 4 14 13 7 23 40 48 54 58 58 57
23 20 17 13 13 15 18 19 20 17 10 8 5 1 3 7 6 11 9 11 14 16 15 16 15 5 8 6 9 5 6 8 10 20 7 23 6 4 24 41 47 54 55 60 60
28 25 20 15 14 13 13 16 16 12 11 8 4 1 3 4 4 10 8 8 9 13 12 9 9 14 8 4 7 8 8 5 4 17 8 11 10 7 32 47 47 48 56 64 58
29 29 23 17 13 13 15 15 11 11 9 7 4 2 1 6 2 7 6 7 5 8 12 9 7 8 7 7 7 12 3 5 13 2 6 9 7 12 36 37 38 42 47 49 57
31 28 20 19 15 13 13 13 11 7 2 2 2 2 3 2 6 3 7 6 5 5 5 7 7 6 7 8 3 4 3 5 9 7 8 6 4 14 32 35 38 41 44 50 56
35 31 27 19 15 12 10 8 3 4 5 5 3 2 4 7 2 1 5 5 6 8 6 7 9 3 3 3 7 5 2 5 8 5 6 6 2 9 27 34 38 45 44 44 54
33 32 25 17 14 12 8 4 4 4 7 11 10 8 8 4 3 2 4 3 7 5 3 8 3 6 2 6 6 7 3 7 9 7 6 7 10 7 13 18 36 38 41 41 53
30 29 22 15 12 12 8 5 2 3 3 5 7 4 4 5 3 4 4 3 5 3 3 5 2 4 1 3 1 4 7 4 9 9 4 9 6 8 6 20 37 37 38 44 50
32 27 22 15 13 15 10 6 2 2 8 5 4 2 5 5 2 3 3 3 3 3 0 5 1 3 2 3 5 6 10 8 6 7 4 8 8 9 10 11 25 36 42 47 55
35 31 25 24 10 17 10 9 5 2 7 4 4 8 7 4 3 1 1 2 4 4 4 2 5 1 3 4 4 11 9 6 5 6 2 8 2 12 10 11 16 29 35 42 55
36 30 33 30 24 17 14 13 9 9 13 5 6 5 5 3 3 5 3 5 3 2 1 7 2 3 6 3 6 6 3 7 2 1 5 4 8 10 4 8 11 21 32 36 45
39 32 30 32 24 24 22 16 8 7 7 7 8 8 4 6 4 5 2 2 4 4 4 4 3 4 4 3 2 10 9 6 9 8 7 7 4 14 7 4 4 16 24 26 32
44 36 32 34 22 31 31 8 7 4 12 5 6 7 9 10 4 5 6 2 4 6 2 6 8 7 2 1 1 4 7 7 9 4 8 4 8 9 8 9 3 6 12 19 26
52 45 39 37 30 38 21 5 17 14 11 20 7 7 5 4 7 5 12 9 11 12 11 6 6 1 2 3 5 2 4 1 5 6 3 6 9 11 10 10 4 3 8 14 22
68 54 46 41 37 38 4 17 10 8 11 6 16 9 14 9 11 11 12 7 9 8 7 6 2 1 1 4 4 4 7 6 5 4 8 9 8 9 12 15 12 8 1 7 13
73 37 37 45 42 25 11 14 12 17 15 12 13 10 10 14 14 10 12 4 9 10 7 6 3 3 2 6 9 2 1 4 6 7 6 5 11 11 16 15 18 18 9 5 10
72 10 50 61 18 6 11 13 9 11 11 6 8 6 14 16 12 9 15 6 23 21 12 4 6 6 10 1 2 3 6 7 6 7 6 1 12 4 13 18 31 25 16 10 8
59 18 63 73 16 8 5 6 8 10 11 14 15 9 7 14 7 9 9 2 22 14 13 12 1 4 12 9 6 6 9 7 5 4 10 8 10 3 7 11 24 30 19 14 11
42 10 17 43 16 30 13 10 10 20 9 12 10 9 8 7 3 12 8 4 13 11 12 13 6 11 10 6 5 8 9 12 10 6 6 13 7 9 13 16 24 31 30 22 14
36 16 27 15 29 11 22 22 18 13 11 16 7 14 15 10 8 11 8 6 3 12 10 8 8 5 8 11 6 10 11 16 23 16 14 7 16 14 21 27 46 41 34 32 27
37 20 24 16 53 30 26 26 33 13 21 14 9 24 16 15 16 18 16 10 11 6 11 4 2 5 8 6 6 12 26 30 31 26 29 27 43 16 13 26 36 47 43 41 37
61 59 44 38 32 34 34 17 33 24 16 18 32 16 18 14 17 5 15 28 26 18 13 13 10 5 9 9 12 17 28 38 17 13 36 32 26 10 10 24 48 58 56 49 39
Wind_Direction_500mb
336 340 342 347 348 347 348 349 351 351 352 351 355 1 14 78 44 33 40 32 26 19 12 27 71 115 116 89 86 106 64 141 2 3 294 343 5 330 329 305 352 357 333 321 319
327 332 337 340 342 344 347 346 349 348 348 346 348 354 4 211 335 25 32 28 19 9 9 53 114 106 58 54 31 72 99 140 150 89 303 300 329 328 348 348 355 346 346 334 324
315 327 331 334 337 340 341 342 345 344 343 344 348 357 0 320 351 15 18 17 8 5 4 21 105 73 61 40 17 27 125 191 198 347 331 319 352 349 6 30 355 338 341 350 345
304 318 328 330 331 333 335 336 340 340 339 338 342 348 19 1 161 3 18 12 9 10 2 38 142 76 71 52 1 86 42 60 285 329 332 332 335 15 48 346 351 344 340 341 345
285 303 318 324 326 328 329 330 332 332 331 329 329 331 306 61 71 22 25 14 6 19 34 78 76 104 105 69 54 62 347 343 357 18 14 2 323 210 25 5 346 336 332 335 335
271 279 294 312 322 326 326 326 328 327 324 324 326 319 180 129 55 33 28 19 20 32 42 58 76 94 100 83 88 356 320 298 5 354 43 3 18 101 349 351 344 337 336 333 331
261 267 280 292 306 317 321 322 324 321 317 317 318 65 83 134 58 24 15 24 27 36 51 62 69 105 98 80 21 19 51 353 10 359 352 339 34 37 344 348 344 341 346 342 334
253 256 262 279 295 302 308 317 320 317 310 308 304 290 135 140 71 9 20 29 35 39 47 71 89 78 69 76 36 53 55 33 313 357 329 359 308 346 4 355 355 350 345 342 343
257 261 259 271 287 302 311 318 318 311 305 293 272 229 143 151 34 10 13 12 49 35 49 74 65 61 64 77 33 12 56 356 325 57 325 44 290 48 7 3 347 337 337 338 343
262 259 262 267 282 294 305 313 316 307 306 114 150 105 179 223 338 28 9 15 42 35 59 54 57 65 34 56 176 242 50 290 261 300 357 319 351 13 8 358 344 337 337 341 342
249 253 260 258 266 280 298 312 304 268 250 219 213 229 245 294 269 42 15 52 42 51 47 24 70 115 206 164 147 157 217 268 261 264 299 285 40 3 360 2 346 345 344 336 342
248 244 253 245 252 270 290 294 273 278 306 251 232 247 249 270 255 192 16 74 49 60 3 18 104 210 196 193 189 207 146 289 288 265 242 355 327 307 0 357 358 349 350 354 351
250 236 237 234 235 246 256 253 250 309 284 257 207 197 215 196 222 194 12 88 95 78 43 168 186 164 88 296 76 210 170 215 228 306 67 315 18 333 354 8 11 7 359 2 3
243 226 218 218 234 224 227 205 176 284 58 225 205 165 187 172 267 210 29 94 92 123 265 230 337 157 319 250 125 302 193 172 262 341 315 6 293 305 330 333 16 7 3 359 6
239 214 207 199 203 196 191 172 145 29 329 105 159 151 158 168 143 185 77 86 153 163 111 244 172 256 288 231 150 235 166 239 225 257 82 353 357 267 334 331 337 360 353 2 17
230 214 212 208 202 190 169 150 129 44 255 178 135 165 123 160 166 151 102 83 71 43 94 245 331 204 228 267 193 296 304 32 351 257 35 233 115 284 289 263 310 322 347 1 14
216 210 216 205 205 183 166 148 46 163 357 216 194 162 158 170 179 150 99 80 146 63 250 350 228 260 225 2 115 46 50 342 354 7 221 149 79 247 243 291 255 310 353 9 18
205 208 209 206 197 182 161 66 170 230 213 141 146 118 176 159 225 149 110 252 196 125 139 174 313 188 178 120 165 42 118 147 258 272 279 142 227 257 182 99 159 332 9 16 18
195 200 207 202 190 179 180 133 204 201 169 152 79 138 259 211 172 164 187 196 194 169 172 156 277 71 94 107 120 109 95 172 89 332 325 260 286 299 166 140 136 318 18 34 30
189 193 208 196 187 180 123 221 222 202 139 126 173 165 175 200 173 194 189 206 176 162 150 186 304 235 156 107 87 142 157 56 20 358 295 283 265 241 222 201 173 217 254 52 49
184 177 202 194 183 188 198 229 220 210 171 159 188 150 190 172 183 203 193 205 168 150 140 134 137 264 153 195 181 85 102 106 136 158 237 303 266 211 220 184 173 192 179 98 70
175 164 175 179 173 211 197 198 216 179 178 180 137 135 177 162 168 213 201 216 167 151 159 152 143 224 214 328 311 145 235 165 145 218 234 248 270 309 214 184 167 179 175 148 108
169 141 170 176 202 201 272 272 240 168 189 170 198 210 173 170 157 185 186 169 161 153 158 171 318 5 349 1 3 207 191 205 114 76 211 154 261 47 141 192 181 169 184 174 152
149 139 153 195 200 188 166 221 212 216 213 163 171 143 130 148 230 171 145 171 170 152 147 135 141 190 193 171 143 211 203 196 171 156 211 229 250 243 208 212 206 188 183 185 176
166 185 172 185 198 171 193 179 176 178 221 185 216 205 168 147 127 173 150 124 79 159 131 131 194 174 256 240 225 238 220 207 209 209 202 242 224 225 220 205 209 200 187 184 185
168 152 162 164 180 184 194 199 186 191 159 213 187 187 188 159 182 185 142 176 184 152 149 146 212 85 300 353 250 260 239 231 231 227 252 259 271 212 253 212 198 205 201 194 186
195 192 170 168 174 184 205 179 198 155 216 191 194 161 195 193 160 140 150 164 160 146 156 147 133 96 265 348 328 297 240 214 213 200 218 231 243 145 194 202 209 206 206 209 197
Wind_Speed_850mb
15 17 18 17 16 16 16 16 17 17 18 18 14 12 7 4 17 12 11 17 20 21 17 9 7 10 10 9 8 5 8 2 4 7 10 19 13 13 23 17 18 39 31 40 46
12 17 18 19 17 16 15 15 16 16 16 17 14 11 5 1 7 23 18 18 19 21 16 7 8 6 7 7 8 8 6 4 0 1 5 17 8 17 15 23 19 52 30 40 36
10 14 18 18 18 17 17 16 15 16 16 15 10 8 5 4 5 16 18 16 18 20 15 12 5 9 10 11 13 5 6 2 7 5 13 13 14 17 15 6 36 39 50 49 42
16 14 16 17 18 18 17 17 17 17 16 13 9 6 3 3 1 12 14 16 17 21 16 14 5 6 8 6 9 6 6 3 4 10 8 11 17 8 30 19 25 31 40 47 49
16 14 16 18 18 19 19 18 16 16 14 9 8 5 1 2 6 10 12 13 15 16 19 8 17 7 9 4 6 6 7 9 13 6 3 10 22 5 26 33 36 42 43 47 52
19 16 13 15 18 19 20 20 20 17 13 8 6 3 1 2 5 10 11 12 15 18 21 20 13 14 13 6 6 4 7 9 7 17 4 14 13 7 23 40 48 54 58 58 57
23 20 17 13 13 15 18 19 20 17 10 8 5 1 3 7 6 11 9 11 14 16 15 16 15 5 8 6 9 5 6 8 10 20 7 23 6 4 24 41 47 54 55 60 60
28 25 20 15 14 13 13 16 16 12 11 8 4 1 3 4 4 10 8 8 9 13 12 9 9 14 8 4 7 8 8 5 4 17 8 11 10 7 32 47 47 48 56 64 58
29 29 23 17 13 13 15 15 11 11 9 7 4 2 1 6 2 7 6 7 5 8 12 9 7 8 7 7 7 12 3 5 13 2 6 9 7 12 36 37 38 42 47 49 57
31 28 20 19 15 13 13 13 11 7 2 2 2 2 3 2 6 3 7 6 5 5 5 7 7 6 7 8 3 4 3 5 9 7 8 6 4 14 32 35 38 41 44 50 56
35 31 27 19 15 12 10 8 3 4 5 5 3 2 4 7 2 1 5 5 6 8 6 7 9 3 3 3 7 5 2 5 8 5 6 6 2 9 27 34 38 45 44 44 54
33 32 25 17 14 12 8 4 4 4 7 11 10 8 8 4 3 2 4 3 7 5 3 8 3 6 2 6 6 7 3 7 9 7 6 7 10 7 13 18 36 38 41 41 53
30 29 22 15 12 12 8 5 2 3 3 5 7 4 4 5 3 4 4 3 5 3 3 5 2 4 1 3 1 4 7 4 9 9 4 9 6 8 6 20 37 37 38 44 50
32 27 22 15 13 15 10 6 2 2 8 5 4 2 5 5 2 3 3 3 3 3 0 5 1 3 2 3 5 6 10 8 6 7 4 8 8 9 10 11 25 36 42 47 55
35 31 25 24 10 17 10 9 5 2 7 4 4 8 7 4 3 1 1 2 4 4 4 2 5 1 3 4 4 11 9 6 5 6 2 8 2 12 10 11 16 29 35 42 55
36 30 33 30 24 17 14 13 9 9 13 5 6 5 5 3 3 5 3 5 3 2 1 7 2 3 6 3 6 6 3 7 2 1 5 4 8 10 4 8 11 21 32 36 45
39 32 30 32 24 24 22 16 8 7 7 7 8 8 4 6 4 5 2 2 4 4 4 4 3 4 4 3 2 10 9 6 9 8 7 7 4 14 7 4 4 16 24 26 32
44 36 32 34 22 31 31 8 7 4 12 5 6 7 9 10 4 5 6 2 4 6 2 6 8 7 2 1 1 4 7 7 9 4 8 4 8 9 8 9 3 6 12 19 26
52 45 39 37 30 38 21 5 17 14 11 20 7 7 5 4 7 5 12 9 11 12 11 6 6 1 2 3 5 2 4 1 5 6 3 6 9 11 10 10 4 3 8 14 22
68 54 46 41 37 38 4 17 10 8 11 6 16 9 14 9 11 11 12 7 9 8 7 6 2 1 1 4 4 4 7 6 5 4 8 9 8 9 12 15 12 8 1 7 13
73 37 37 45 42 25 11 14 12 17 15 12 13 10 10 14 14 10 12 4 9 10 7 6 3 3 2 6 9 2 1 4 6 7 6 5 11 11 16 15 18 18 9 5 10
72 10 50 61 18 6 11 13 9 11 11 6 8 6 14 16 12 9 15 6 23 21 12 4 6 6 10 1 2 3 6 7 6 7 6 1 12 4 13 18 31 25 16 10 8
59 18 63 73 16 8 5 6 8 10 11 14 15 9 7 14 7 9 9 2 22 14 13 12 1 4 12 9 6 6 9 7 5 4 10 8 10 3 7 11 24 30 19 14 11
42 10 17 43 16 30 13 10 10 20 9 12 10 9 8 7 3 12 8 4 13 11 12 13 6 11 10 6 5 8 9 12 10 6 6 13 7 9 13 16 24 31 30 22 14
36 16 27 15 29 11 22 22 18 13 11 16 7 14 15 10 8 11 8 6 3 12 10 8 8 5 8 11 6 10 11 16 23 16 14 7 16 14 21 27 46 41 34 32 27
37 20 24 16 53 30 26 26 33 13 21 14 9 24 16 15 16 18 16 10 11 6 11 4 2 5 8 6 6 12 26 30 31 26 29 27 43 16 13 26 36 47 43 41 37
61 59 44 38 32 34 34 17 33 24 16 18 32 16 18 14 17 5 15 28 26 18 13 13 10 5 9 9 12 17 28 38 17 13 36 32 26 10 10 24 48 58 56 49 39
Wind_Direction_850mb
336 340 342 347 348 347 348 349 351 351 352 351 355 1 14 78 44 33 40 32 26 19 12 27 71 115 116 89 86 106 64 141 2 3 294 343 5 330 329 305 352 357 333 321 319
327 332 337 340 342 344 347 346 349 348 348 346 348 354 4 211 335 25 32 28 19 9 9 53 114 106 58 54 31 72 99 140 150 89 303 300 329 328 348 348 355 346 346 334 324
315 327 331 334 337 340 341 342 345 344 343 344 348 357 0 320 351 15 18 17 8 5 4 21 105 73 61 40 17 27 125 191 198 347 331 319 352 349 6 30 355 338 341 350 345
304 318 328 330 331 333 335 336 340 340 339 338 342 348 19 1 161 3 18 12 9 10 2 38 142 76 71 52 1 86 42 60 285 329 332 332 335 15 48 346 351 344 340 341 345
285 303 318 324 326 328 329 330 332 332 331 329 329 331 306 61 71 22 25 14 6 19 34 78 76 104 105 69 54 62 347 343 357 18 14 2 323 210 25 5 346 336 332 335 335
271 279 294 312 322 326 326 326 328 327 324 324 326 319 180 129 55 33 28 19 20 32 42 58 76 94 100 83 88 356 320 298 5 354 43 3 18 101 349 351 344 337 336 333 331
261 267 280 292 306 317 321 322 324 321 317 317 318 65 83 134 58 24 15 24 27 36 51 62 69 105 98 80 21 19 51 353 10 359 352 339 34 37 344 348 344 341 346 342 334
253 256 262 279 295 302 308 317 320 317 310 308 304 290 135 140 71 9 20 29 35 39 47 71 89 78 69 76 36 53 55 33 313 357 329 359 308 346 4 355 355 350 345 342 343
257 261 259 271 287 302 311 318 318 311 305 293 272 229 143 151 34 10 13 12 49 35 49 74 65 61 64 77 33 12 56 356 325 57 325 44 290 48 7 3 347 337 337 338 343
262 259 262 267 282 294 305 313 316 307 306 114 150 105 179 223 338 28 9 15 42 35 59 54 57 65 34 56 176 242 50 290 261 300 357 319 351 13 8 358 344 337 337 341 342
249 253 260 258 266 280 298 312 304 268 250 219 213 229 245 294 269 42 15 52 42 51 47 24 70 115 206 164 147 157 217 268 261 264 299 285 40 3 360 2 346 345 344 336 342
248 244 253 245 252 270 290 294 273 278 306 251 232 247 249 270 255 192 16 74 49 60 3 18 104 210 196 193 189 207 146 289 288 265 242 355 327 307 0 357 358 349 350 354 351
250 236 237 234 235 246 256 253 250 309 284 257 207 197 215 196 222 194 12 88 95 78 43 168 186 164 88 296 76 210 170 215 228 306 67 315 18 333 354 8 11 7 359 2 3
243 226 218 218 234 224 227 205 176 284 58 225 205 165 187 172 267 210 29 94 92 123 265 230 337 157 319 250 125 302 193 172 262 341 315 6 293 305 330 333 16 7 3 359 6
239 214 207 199 203 196 191 172 145 29 329 105 159 151 158 168 143 185 77 86 153 163 111 244 172 256 288 231 150 235 166 239 225 257 82 353 357 267 334 331 337 360 353 2 17
230 214 212 208 202 190 169 150 129 44 255 178 135 165 123 160 166 151 102 83 71 43 94 245 331 204 228 267 193 296 304 32 351 257 35 233 115 284 289 263 310 322 347 1 14
216 210 216 205 205 183 166 148 46 163 357 216 194 162 158 170 179 150 99 80 146 63 250 350 228 260 225 2 115 46 50 342 354 7 221 149 79 247 243 291 255 310 353 9 18
205 208 209 206 197 182 161 66 170 230 213 141 146 118 176 159 225 149 110 252 196 125 139 174 313 188 178 120 165 42 118 147 258 272 279 142 227 257 182 99 159 332 9 16 18
195 200 207 202 190 179 180 133 204 201 169 152 79 138 259 211 172 164 187 196 194 169 172 156 277 71 94 107 120 109 95 172 89 332 325 260 286 299 166 140 136 318 18 34 30
189 193 208 196 187 180 123 221 222 202 139 126 173 165 175 200 173 194 189 206 176 162 150 186 304 235 156 107 87 142 157 56 20 358 295 283 265 241 222 201 173 217 254 52 49
184 177 202 194 183 188 198 229 220 210 171 159 188 150 190 172 183 203 193 205 168 150 140 134 137 264 153 195 181 85 102 106 136 158 237 303 266 211 220 184 173 192 179 98 70
175 164 175 179 173 211 197 198 216 179 178 180 137 135 177 162 168 213 201 216 167 151 159 152 143 224 214 328 311 145 235 165 145 218 234 248 270 309 214 184 167 179 175 148 108
169 141 170 176 202 201 272 272 240 168 189 170 198 210 173 170 157 185 186 169 161 153 158 171 318 5 349 1 3 207 191 205 114 76 211 154 261 47 141 192 181 169 184 174 152
149 139 153 195 200 188 166 221 212 216 213 163 171 143 130 148 230 171 145 171 170 152 147 135 141 190 193 171 143 211 203 196 171 156 211 229 250 243 208 212 206 188 183 185 176
166 185 172 185 198 171 193 179 176 178 221 185 216 205 168 147 127 173 150 124 79 159 131 131 194 174 256 240 225 238 220 207 209 209 202 242 224 225 220 205 209 200 187 184 185
168 152 162 164 180 184 194 199 186 191 159 213 187 187 188 159 182 185 142 176 184 152 149 146 212 85 300 353 250 260 239 231 231 227 252 259 271 212 253 212 198 205 201 194 186
195 192 170 168 174 184 205 179 198 155 216 191 194 161 195 193 160 140 150 164 160 146 156 147 133 96 265 348 328 297 240 214 213 200 218 231 243 145 194 202 209 206 206 209 197